Miscellaneous Local Product
Issued by NWS North Platte, NE

Home | Current Version | Previous Version | Text Only | Print | Product List | Glossary On
Versions: 1 2 3 4 5 6 7 8 9 10 11 12 13 14 15 16 17 18 19 20 21 22 23 24 25 26 27 28 29 30 31 32 33 34 35 36 37 38 39 40 41 42 43 44 45 46 47 48 49 50
000
AXUS43 KLBF 190210
MISLBF


WESTERN AND NORTH CENTRAL NEBRASKA HOURLY WEATHER ROUNDUP
NATIONAL WEATHER SERVICE NORTH PLATTE NE
800 PM CST THU JAN 18 2018

NOTE: "FAIR" INDICATES FEW OR NO CLOUDS BELOW 12,000 FEET WITH NO
SIGNIFICANT WEATHER AND/OR OBSTRUCTIONS TO VISIBILITY.

NOTE: STATIONS NOT REPORTING VARIABLES SUCH AS SKY/WEATHER OR
PRESSURE ARE PROVIDED BY RAWS AND APRS NETWORKS AND ARE NOT UNDER
NATIONAL WEATHER SERVICE QUALITY CONTROL.

...OBSERVATIONS IN AND NEAR THE EASTERN PANHANDLE OF NEBRASKA...

CITY           SKY/WX    TMP DP  RH WIND       PRES   REMARKS
PINE RIDGE     CLOUDY    37  30  75 SW8       29.80F WCI  31
GORDON         FAIR      41  32  69 CALM      29.81F
CHADRON        CLOUDY    34  29  82 CALM      29.81F
ALLIANCE       CLOUDY    32  29  88 SW6       29.86S WCI  26
SIDNEY         MOCLDY    34  22  61 SW8       29.92S WCI  27
CRESCENT LAKE    N/A     39  29  69 SE3         N/A
$$

...OBSERVATIONS IN NORTHERN NEBRASKA AND FAR SOUTHERN SOUTH DAKOTA...

CITY           SKY/WX    TMP DP  RH WIND       PRES   REMARKS
WINNER         FAIR      45  31  58 SW9       29.76F
VALENTINE      CLOUDY    39  30  70 SW6       29.80F WCI  35
AINSWORTH      CLOUDY    37  32  81 SW7       29.81F WCI  32
O`NEILL        PTCLDY    34  30  86 SW7       29.83R WCI  28
THEDFORD       MOCLDY    38  31  74 W5        29.86S WCI  35
BROKEN BOW     MOCLDY    37  29  72 CALM      29.87F
ORD            CLOUDY    34  28  79 SW7       29.85F WCI  28
ALBION         CLOUDY    35  29  80 CALM      29.86F
VALENTINE NWR    N/A     40  30  66 SW7         N/A
HALSEY           N/A     42  30  61 SW5         N/A
BUTTE            N/A     38  30  73 SW6         N/A  WCI  33
CHAMBERS         N/A     35  29  78 SW3         N/A
EWING            N/A     34  30  85 SW3         N/A
$$

...OBSERVATIONS IN SOUTHWEST NEBRASKA AND FAR NORTHEAST COLORADO...

CITY           SKY/WX    TMP DP  RH WIND       PRES   REMARKS
WRAY           FAIR      45  18  33 SW10      29.92S
HOLYOKE        FAIR      37  23  56 SW7       29.91F WCI  32
IMPERIAL       CLOUDY    38  26  62 S5        29.90F WCI  34
OGALLALA       PTCLDY    34  27  75 CALM      29.89F
NORTH PLATTE   CLOUDY    29  24  82 CALM      29.90S
MCCOOK         MOCLDY    39  25  57 SW5       29.90F
LEXINGTON      CLOUDY    37  28  70 CALM      29.90S
STAPLETON        N/A     36  30  78 CALM        N/A
GOTHENBURG       N/A     36  28  73 N3          N/A
CALLAWAY         N/A     39  31  72 W7          N/A  WCI  34
$$

...OBSERVATIONS IN CENTRAL LINCOLN COUNTY AREA...

CITY           SKY/WX    TMP DP  RH WIND       PRES   REMARKS
N.P. AIRPORT   CLOUDY    29  24  82 CALM      29.90S
N.P. DOWNTOWN    N/A     33  29  84 CALM        N/A
N.P. SOUTHEAST   N/A     36  29  76 CALM        N/A
N.P. HILLCREST   N/A     43  32  65 CALM        N/A
$$

...SOME OBSERVATIONS FROM AROUND THE REGION...

CITY           SKY/WX    TMP DP  RH WIND       PRES   REMARKS
DENVER         MOCLDY    41  13  31 S13       29.96F
BERTHOUD PASS  FAIR      28  18  64 W13G20    30.29F WCI  18
GRAND JUNCTION CLOUDY    34  19  54 N6        30.17F WCI  29
LARAMIE        CLOUDY    39  14  36 SW16      30.04F WCI  30
CHEYENNE       CLOUDY    48  17  29 SW12      29.97S
CASPER         CLOUDY    45  21  38 SW23G31   29.91F
BISMARCK       CLOUDY    30  25  81 CALM      29.66F
RAPID CITY     CLOUDY    36  26  67 NW5       29.74S WCI  32
PIERRE         CLOUDY    31  26  82 NE3       29.73F
SIOUX FALLS    CLOUDY    31  26  82 SW5       29.79F WCI  26
OMAHA          CLOUDY    28  21  75 S10       29.94F WCI  19
GRAND ISLAND   CLOUDY    34  29  82 SW8       29.89F WCI  27
SCOTTSBLUFF    CLOUDY    46  31  55 W12       29.88F
KANSAS CITY    CLOUDY    35  22  58 S17       30.04F WCI  25
HILL CITY      CLOUDY    45  14  28 SW10      29.94F
WICHITA        CLOUDY    39  22  50 S14       30.08R WCI  31
DODGE CITY     CLOUDY    36  14  40 S9        30.01S WCI  29
OKLAHOMA CITY  CLOUDY    37  15  40 S10       30.16F WCI  30
DALLAS         PTCLDY    39  14  36 S13       30.30F WCI  31
AMARILLO       CLOUDY    40  10  29 S14       30.08S WCI  32
$$




USA.gov is the U.S. government's official web portal to all federal, state and local government web resources and services.